Regional Weather Roundup
Issued by NWS

Home | Current Version | Previous Version | Graphics & Text | Print | Product List | Glossary Off
Versions: 1 2 3 4 5 6 7 8 9 10 11 12 13 14 15 16 17 18 19 20 21 22 23 24 25 26 27 28 29 30 31 32 33 34 35 36 37 38 39 40 41 42 43 44 45 46 47 48 49 50

162
ASUS44 KLIX 311210
RWRLA
LOUISIANA WEATHER ROUNDUP
NATIONAL WEATHER SERVICE NEW ORLEANS LA
700 AM CDT FRI OCT 31 2014

NOTE: "FAIR" INDICATES FEW OR NO CLOUDS BELOW 12,000 FEET WITH NO
      SIGNIFICANT WEATHER AND/OR OBSTRUCTIONS TO VISIBILITY.
      SKY/WX - SKY CONDITION AND SIGNIFICANT WEATHER.
      TMP - AIR TEMPERATURE.    DP   - DEWPOINT TEMPERATURE.
      RH  - RELATIVE HUMIDITY.  PRES - PRESSURE.
      HX  - HEAT INDEX.         WCI  - WIND CHILL INDEX.

*  THESE STATIONS ARE NOT NWS OR FAA STATIONS AND ARE NOT UNDER
   NWS QUALITY CONTROL.

LAZ040-048-061>063-065-066-069-311300-
SOUTHEAST LOUISIANA

CITY           SKY/WX    TMP DP  RH WIND       PRES   REMARKS
N.O. AUDUBON   NOT AVBL
N.O. INTL ARPT CLEAR     56  51  84 W5        30.04R
6HR MIN TEMP:  52; 6HR MAX TEMP:  59;

N.O. LAKEFRONT CLEAR     66  49  54 N9        30.04R
6HR MIN TEMP:  64; 6HR MAX TEMP:  68;

N.O. DOWNTOWN* FAIR      61  48  63 CALM      30.04S
6HR MIN TEMP:  61; 6HR MAX TEMP:  66;

SLIDELL        CLEAR     44  40  85 CALM      30.04R
6HR MIN TEMP:  43; 6HR MAX TEMP:  48;

BATON ROUGE    CLEAR     47  44  90 CALM      30.06R
6HR MIN TEMP:  47; 6HR MAX TEMP:  50;

BOOTHVILLE     CLEAR     64  51  62 N5        30.03R
6HR MIN TEMP:  64; 6HR MAX TEMP:  66;

BELLE CHASSE   PTCLDY    49  45  86 CALM      30.04R
6HR MIN TEMP:  49; 6HR MAX TEMP:  51;

BOGALUSA*        N/A     42  39  89 CALM      30.05S
6HR MIN TEMP:  41; 6HR MAX TEMP:  46;

NEW ROADS*     FAIR      46  44  95 CALM      30.07R
6HR MIN TEMP:  46; 6HR MAX TEMP:  49;

GONZALES*      FAIR      47  47 100 CALM      30.05S
6HR MIN TEMP:  47; 6HR MAX TEMP:  53;

HAMMOND*       CLEAR     45  43  93 CALM      30.06R
HOUMA*         CLEAR     52  48  87 CALM      30.05R
PORT FOURCHON* SUNNY     63  55  77 N6        30.07S

$$

LAZ041-044-053-054-311300-
SOUTHWEST LOUISIANA

CITY           SKY/WX    TMP DP  RH WIND       PRES   REMARKS
LAKE CHARLES   CLEAR     53  49  86 NW5       30.09R
6HR MIN TEMP:  50; 6HR MAX TEMP:  53;

LAFAYETTE      CLEAR     53  46  77 CALM      30.07R
6HR MIN TEMP:  51; 6HR MAX TEMP:  55;

PATTERSON      CLEAR     48  46  93 CALM      30.09R
6HR MIN TEMP:  48; 6HR MAX TEMP:  54;

SALT POINT       N/A     57  52  83 N5        30.06R
6HR MIN TEMP:  55; 6HR MAX TEMP:  60;

NEW IBERIA     CLEAR     50  46  86 CALM      30.08R
6HR MIN TEMP:  48; 6HR MAX TEMP:  53;

CHENAULT AIRPK CLEAR     52  48  87 CALM      30.08S

$$

LAZ027-028-311300-
CENTRAL LOUISIANA

CITY           SKY/WX    TMP DP  RH WIND       PRES   REMARKS
FORT POLK      CLEAR     51  49  93 NW5       30.09R
6HR MIN TEMP:  50; 6HR MAX TEMP:  54;

ALEXANDRIA INT CLEAR     46  45  96 CALM      30.07R
6HR MIN TEMP:  43; 6HR MAX TEMP:  51;

ALEXANDRIA     CLEAR     45  43  93 W5        30.08R
6HR MIN TEMP:  45; 6HR MAX TEMP:  50;


$$

LAZ001-002-311300-
NORTHWEST LOUISIANA

CITY           SKY/WX    TMP DP  RH WIND       PRES   REMARKS
SHREVEPORT     CLEAR     51  46  83 NW9       30.12R
6HR MIN TEMP:  50; 6HR MAX TEMP:  56;

BARKSDALE AFB  CLEAR     47  44  87 NW7       30.12R
6HR MIN TEMP:  47; 6HR MAX TEMP:  51;

DTN SHREVEPORT CLEAR     54  44  69 NW8       30.12R
6HR MIN TEMP:  52; 6HR MAX TEMP:  56;


$$

LAZ014-016-311300-
NORTHEAST LOUISIANA

CITY           SKY/WX    TMP DP  RH WIND       PRES   REMARKS
MONROE         CLEAR     52  45  77 N7        30.08R
6HR MIN TEMP:  50; 6HR MAX TEMP:  55;

TALLULAH       CLEAR     42  41  96 NW5       30.05R
6HR MIN TEMP:  41; 6HR MAX TEMP:  47;


$$




USA.gov is the U.S. government's official web portal to all federal, state and local government web resources and services.